Time,TemperatureF,DewpointF,PressureIn,WindDirection,WindDirectionDegrees,WindSpeedMPH,WindSpeedGustMPH,Humidity,HourlyPrecipIn,Conditions,Clouds,dailyrainin,SoftwareType,DateUTC
2013-03-19 00:02:00,42.0,37.0,30.00,West,277,0.0,-999.0,83,-99.99,,,-99.99,,2013-03-19 05:02:00,
2013-03-19 00:12:00,42.0,37.0,30.00,West,277,0.0,-999.0,83,-99.99,,,-99.99,,2013-03-19 05:12:00,
2013-03-19 00:22:00,42.0,37.0,30.01,West,277,0.0,-999.0,83,-99.99,,,-99.99,,2013-03-19 05:22:00,
2013-03-19 00:32:00,42.0,37.0,30.02,West,276,0.0,-999.0,83,-99.99,,,-99.99,,2013-03-19 05:32:00,
2013-03-19 00:43:00,42.0,37.0,30.02,West,276,0.0,-999.0,83,-99.99,,,-99.99,,2013-03-19 05:43:00,
2013-03-19 00:52:00,42.0,37.0,30.02,WSW,246,0.0,-999.0,81,-99.99,,,-99.99,,2013-03-19 05:52:00,
2013-03-19 01:02:00,42.0,36.0,30.03,WSW,245,0.0,-999.0,80,-99.99,,,-99.99,,2013-03-19 06:02:00,
2013-03-19 01:12:00,42.0,36.0,30.03,WSW,245,0.0,-999.0,80,-99.99,,,-99.99,,2013-03-19 06:12:00,
2013-03-19 01:22:00,41.0,36.0,30.03,WSW,246,0.0,-999.0,81,-99.99,,,-99.99,,2013-03-19 06:22:00,
2013-03-19 01:32:00,41.0,36.0,30.03,WSW,245,0.0,-999.0,81,-99.99,,,-99.99,,2013-03-19 06:32:00,
2013-03-19 01:42:00,41.0,36.0,30.03,WSW,245,0.0,-999.0,81,-99.99,,,-99.99,,2013-03-19 06:42:00,
2013-03-19 01:52:00,41.0,35.0,30.04,WSW,244,0.0,-999.0,80,-99.99,,,-99.99,,2013-03-19 06:52:00,
2013-03-19 02:02:00,41.0,35.0,30.04,WSW,244,0.0,-999.0,80,-99.99,,,-99.99,,2013-03-19 07:02:00,
2013-03-19 02:12:00,41.0,35.0,30.04,WSW,244,0.0,-999.0,80,-99.99,,,-99.99,,2013-03-19 07:12:00,
2013-03-19 02:21:00,41.0,35.0,30.04,WSW,242,0.0,-999.0,79,-99.99,,,-99.99,,2013-03-19 07:21:00,
2013-03-19 02:32:00,41.0,35.0,30.03,SW,234,0.0,-999.0,78,-99.99,,,-99.99,,2013-03-19 07:32:00,
2013-03-19 02:42:00,41.0,35.0,30.03,SW,234,0.0,-999.0,78,-99.99,,,-99.99,,2013-03-19 07:42:00,
2013-03-19 02:52:00,40.0,34.0,30.03,SW,236,0.0,-999.0,78,-99.99,,,-99.99,,2013-03-19 07:52:00,
2013-03-19 03:02:00,40.0,34.0,30.03,SW,236,0.0,-999.0,79,-99.99,,,-99.99,,2013-03-19 08:02:00,
2013-03-19 03:12:00,40.0,34.0,30.03,SW,236,0.0,-999.0,79,-99.99,,,-99.99,,2013-03-19 08:12:00,
2013-03-19 03:22:00,39.0,33.0,30.02,SW,236,0.0,-999.0,79,-99.99,,,-99.99,,2013-03-19 08:22:00,
2013-03-19 03:32:00,39.0,33.0,30.03,SW,236,0.0,-999.0,79,-99.99,,,-99.99,,2013-03-19 08:32:00,
2013-03-19 03:42:00,39.0,33.0,30.03,SW,236,0.0,-999.0,79,-99.99,,,-99.99,,2013-03-19 08:42:00,
2013-03-19 03:52:00,38.0,32.0,30.03,WSW,238,0.0,-999.0,79,-99.99,,,-99.99,,2013-03-19 08:52:00,
2013-03-19 04:02:00,38.0,32.0,30.03,WSW,243,0.0,-999.0,80,-99.99,,,-99.99,,2013-03-19 09:02:00,
2013-03-19 04:12:00,38.0,32.0,30.03,WSW,243,0.0,-999.0,80,-99.99,,,-99.99,,2013-03-19 09:12:00,
2013-03-19 04:22:00,38.0,32.0,30.04,WNW,296,0.0,-999.0,79,-99.99,,,-99.99,,2013-03-19 09:22:00,
2013-03-19 04:32:00,39.0,33.0,30.04,NW,311,0.0,-999.0,78,-99.99,,,-99.99,,2013-03-19 09:32:00,
2013-03-19 04:42:00,39.0,33.0,30.04,NW,311,0.0,-999.0,78,-99.99,,,-99.99,,2013-03-19 09:42:00,
2013-03-19 04:53:00,39.0,32.0,30.04,NNW,329,0.0,-999.0,76,-99.99,,,-99.99,,2013-03-19 09:53:00,
2013-03-19 05:03:00,39.0,32.0,30.04,NNW,346,0.0,-999.0,75,-99.99,,,-99.99,,2013-03-19 10:03:00,
2013-03-19 05:12:00,39.0,32.0,30.04,NNW,346,0.0,-999.0,75,-99.99,,,-99.99,,2013-03-19 10:12:00,
2013-03-19 05:23:00,38.0,31.0,30.08,NNW,339,0.0,-999.0,75,-99.99,,,-99.99,,2013-03-19 10:23:00,
2013-03-19 05:32:00,38.0,31.0,30.08,NNW,342,1.0,-999.0,76,-99.99,,,-99.99,,2013-03-19 10:32:00,
2013-03-19 05:42:00,38.0,31.0,30.08,NNW,342,1.0,-999.0,76,-99.99,,,-99.99,,2013-03-19 10:42:00,
2013-03-19 05:53:00,37.0,30.0,30.07,NNE,14,1.0,-999.0,77,-99.99,,,-99.99,,2013-03-19 10:53:00,
2013-03-19 06:02:00,37.0,30.0,30.07,NNE,22,3.0,-999.0,77,-99.99,,,-99.99,,2013-03-19 11:02:00,
2013-03-19 06:12:00,37.0,30.0,30.07,NNE,22,3.0,-999.0,77,-99.99,,,-99.99,,2013-03-19 11:12:00,
2013-03-19 06:22:00,36.0,29.0,30.08,NNE,19,1.0,-999.0,77,-99.99,,,-99.99,,2013-03-19 11:22:00,
2013-03-19 06:32:00,36.0,30.0,30.09,NNE,15,2.0,-999.0,78,-99.99,,,-99.99,,2013-03-19 11:32:00,
2013-03-19 06:42:00,36.0,30.0,30.09,NNE,15,2.0,-999.0,78,-99.99,,,-99.99,,2013-03-19 11:42:00,
2013-03-19 06:52:00,36.0,29.0,30.10,NNE,22,0.0,-999.0,77,-99.99,,,-99.99,,2013-03-19 11:52:00,
2013-03-19 07:02:00,35.0,29.0,30.10,North,360,0.0,-999.0,77,-99.99,,,-99.99,,2013-03-19 12:02:00,
2013-03-19 07:12:00,34.0,28.0,30.11,NNW,347,0.0,-999.0,78,-99.99,,,-99.99,,2013-03-19 12:12:00,
2013-03-19 07:22:00,34.0,28.0,30.11,NNW,347,0.0,-999.0,78,-99.99,,,-99.99,,2013-03-19 12:22:00,
2013-03-19 07:32:00,34.0,28.0,30.11,North,355,0.0,-999.0,78,-99.99,,,-99.99,,2013-03-19 12:32:00,
2013-03-19 07:42:00,34.0,28.0,30.11,North,355,0.0,-999.0,78,-99.99,,,-99.99,,2013-03-19 12:42:00,
2013-03-19 07:52:00,35.0,29.0,30.11,NNE,22,2.0,-999.0,78,-99.99,,,-99.99,,2013-03-19 12:52:00,
2013-03-19 08:02:00,35.0,29.0,30.12,North,360,5.0,-999.0,77,-99.99,,,-99.99,,2013-03-19 13:02:00,
2013-03-19 08:12:00,35.0,29.0,30.12,North,360,5.0,-999.0,77,-99.99,,,-99.99,,2013-03-19 13:12:00,
2013-03-19 08:22:00,37.0,28.0,30.11,NNE,13,6.0,-999.0,71,-99.99,,,-99.99,,2013-03-19 13:22:00,
2013-03-19 08:32:00,38.0,28.0,30.12,North,360,6.0,-999.0,68,-99.99,,,-99.99,,2013-03-19 13:32:00,
2013-03-19 08:42:00,38.0,28.0,30.12,North,360,6.0,-999.0,68,-99.99,,,-99.99,,2013-03-19 13:42:00,
2013-03-19 08:52:00,40.0,28.0,30.13,NNE,22,6.0,-999.0,61,-99.99,,,-99.99,,2013-03-19 13:52:00,
2013-03-19 09:02:00,40.0,28.0,30.14,NNE,14,5.0,-999.0,61,-99.99,,,-99.99,,2013-03-19 14:02:00,
2013-03-19 09:12:00,40.0,28.0,30.14,NNE,14,5.0,-999.0,61,-99.99,,,-99.99,,2013-03-19 14:12:00,
2013-03-19 09:22:00,42.0,28.0,30.15,NNW,348,5.0,-999.0,58,-99.99,,,-99.99,,2013-03-19 14:22:00,
2013-03-19 09:32:00,42.0,27.0,30.16,North,360,6.0,-999.0,56,-99.99,,,-99.99,,2013-03-19 14:32:00,
2013-03-19 09:42:00,42.0,27.0,30.16,North,360,6.0,-999.0,56,-99.99,,,-99.99,,2013-03-19 14:42:00,
2013-03-19 09:52:00,43.0,24.0,30.17,North,5,8.0,-999.0,47,-99.99,,,-99.99,,2013-03-19 14:52:00,
2013-03-19 10:02:00,43.0,23.0,30.17,NNE,15,8.0,-999.0,45,-99.99,,,-99.99,,2013-03-19 15:02:00,
2013-03-19 10:12:00,43.0,23.0,30.17,NNE,15,8.0,-999.0,45,-99.99,,,-99.99,,2013-03-19 15:12:00,
2013-03-19 10:22:00,44.0,22.0,30.18,North,5,8.0,-999.0,42,-99.99,,,-99.99,,2013-03-19 15:22:00,
2013-03-19 10:33:00,44.0,23.0,30.18,NNW,334,8.0,-999.0,43,-99.99,,,-99.99,,2013-03-19 15:33:00,
2013-03-19 10:43:00,44.0,23.0,30.18,NNW,334,8.0,-999.0,43,-99.99,,,-99.99,,2013-03-19 15:43:00,
2013-03-19 10:53:00,45.0,24.0,30.18,North,355,8.0,-999.0,43,-99.99,,,-99.99,,2013-03-19 15:53:00,
2013-03-19 11:03:00,45.0,24.0,30.19,NNE,21,8.0,-999.0,44,-99.99,,,-99.99,,2013-03-19 16:03:00,
2013-03-19 11:13:00,45.0,24.0,30.19,NNE,21,8.0,-999.0,44,-99.99,,,-99.99,,2013-03-19 16:13:00,
2013-03-19 11:24:00,45.0,22.0,30.19,NW,325,9.0,-999.0,39,-99.99,,,-99.99,,2013-03-19 16:24:00,
2013-03-19 11:34:00,46.0,22.0,30.19,North,355,7.0,-999.0,39,-99.99,,,-99.99,,2013-03-19 16:34:00,
2013-03-19 11:44:00,46.0,22.0,30.19,North,355,7.0,-999.0,39,-99.99,,,-99.99,,2013-03-19 16:44:00,
2013-03-19 11:54:00,46.0,21.0,30.19,North,10,7.0,-999.0,37,-99.99,,,-99.99,,2013-03-19 16:54:00,
2013-03-19 12:03:00,46.0,21.0,30.20,North,360,7.0,-999.0,36,-99.99,,,-99.99,,2013-03-19 17:03:00,
2013-03-19 12:13:00,47.0,21.0,30.20,NNE,12,6.0,-999.0,35,-99.99,,,-99.99,,2013-03-19 17:13:00,
2013-03-19 12:23:00,47.0,21.0,30.20,NNE,12,6.0,-999.0,35,-99.99,,,-99.99,,2013-03-19 17:23:00,
2013-03-19 12:34:00,47.0,21.0,30.20,North,360,6.0,-999.0,36,-99.99,,,-99.99,,2013-03-19 17:34:00,
2013-03-19 12:43:00,47.0,21.0,30.20,North,360,6.0,-999.0,36,-99.99,,,-99.99,,2013-03-19 17:43:00,
2013-03-19 12:53:00,47.0,22.0,30.20,NE,40,6.0,-999.0,37,-99.99,,,-99.99,,2013-03-19 17:53:00,
2013-03-19 13:02:00,47.0,23.0,30.20,NNE,33,6.0,-999.0,38,-99.99,,,-99.99,,2013-03-19 18:02:00,
2013-03-19 13:13:00,47.0,23.0,30.20,NNE,33,6.0,-999.0,38,-99.99,,,-99.99,,2013-03-19 18:13:00,
2013-03-19 13:23:00,48.0,22.0,30.20,North,11,6.0,-999.0,36,-99.99,,,-99.99,,2013-03-19 18:23:00,
2013-03-19 13:33:00,48.0,22.0,30.20,NE,56,5.0,-999.0,36,-99.99,,,-99.99,,2013-03-19 18:33:00,
2013-03-19 13:42:00,48.0,22.0,30.20,NE,56,5.0,-999.0,36,-99.99,,,-99.99,,2013-03-19 18:42:00,
2013-03-19 13:53:00,49.0,23.0,30.21,North,360,4.0,-999.0,36,-99.99,,,-99.99,,2013-03-19 18:53:00,
2013-03-19 14:02:00,49.0,23.0,30.20,NE,54,6.0,-999.0,35,-99.99,,,-99.99,,2013-03-19 19:02:00,
2013-03-19 14:12:00,49.0,23.0,30.20,NE,54,6.0,-999.0,35,-99.99,,,-99.99,,2013-03-19 19:12:00,
2013-03-19 14:22:00,49.0,23.0,30.19,NE,56,8.0,-999.0,35,-99.99,,,-99.99,,2013-03-19 19:22:00,
2013-03-19 14:32:00,50.0,23.0,30.19,NNE,14,5.0,-999.0,35,-99.99,,,-99.99,,2013-03-19 19:32:00,
2013-03-19 14:42:00,50.0,23.0,30.19,NNE,14,5.0,-999.0,35,-99.99,,,-99.99,,2013-03-19 19:42:00,
2013-03-19 14:53:00,50.0,23.0,30.18,NNW,338,6.0,-999.0,35,-99.99,,,-99.99,,2013-03-19 19:53:00,
2013-03-19 15:02:00,51.0,24.0,30.18,NNE,17,7.0,-999.0,34,-99.99,,,-99.99,,2013-03-19 20:02:00,
2013-03-19 15:12:00,51.0,24.0,30.19,North,5,6.0,-999.0,35,-99.99,,,-99.99,,2013-03-19 20:12:00,
2013-03-19 15:22:00,51.0,24.0,30.19,North,5,6.0,-999.0,35,-99.99,,,-99.99,,2013-03-19 20:22:00,
2013-03-19 15:32:00,51.0,24.0,30.18,NE,48,7.0,-999.0,34,-99.99,,,-99.99,,2013-03-19 20:32:00,
2013-03-19 15:42:00,51.0,24.0,30.18,NE,48,7.0,-999.0,34,-99.99,,,-99.99,,2013-03-19 20:42:00,
2013-03-19 15:53:00,52.0,22.0,30.18,NNE,31,6.0,-999.0,31,-99.99,,,-99.99,,2013-03-19 20:53:00,
2013-03-19 16:02:00,52.0,25.0,30.17,NNE,22,7.0,-999.0,34,-99.99,,,-99.99,,2013-03-19 21:02:00,
2013-03-19 16:12:00,52.0,23.0,30.17,NNW,333,6.0,-999.0,32,-99.99,,,-99.99,,2013-03-19 21:12:00,
2013-03-19 16:22:00,52.0,23.0,30.17,NNW,333,6.0,-999.0,32,-99.99,,,-99.99,,2013-03-19 21:22:00,
2013-03-19 16:33:00,52.0,22.0,30.17,NE,34,5.0,-999.0,31,-99.99,,,-99.99,,2013-03-19 21:33:00,
2013-03-19 16:43:00,52.0,22.0,30.17,NE,34,5.0,-999.0,31,-99.99,,,-99.99,,2013-03-19 21:43:00,
2013-03-19 16:53:00,52.0,22.0,30.17,NE,38,4.0,-999.0,31,-99.99,,,-99.99,,2013-03-19 21:53:00,
2013-03-19 17:03:00,52.0,22.0,30.16,NE,54,6.0,-999.0,30,-99.99,,,-99.99,,2013-03-19 22:03:00,
2013-03-19 17:12:00,52.0,22.0,30.16,NE,54,6.0,-999.0,30,-99.99,,,-99.99,,2013-03-19 22:12:00,
2013-03-19 17:23:00,52.0,22.0,30.16,North,5,5.0,-999.0,30,-99.99,,,-99.99,,2013-03-19 22:23:00,
2013-03-19 17:33:00,52.0,22.0,30.16,NNE,30,6.0,-999.0,31,-99.99,,,-99.99,,2013-03-19 22:33:00,
2013-03-19 17:43:00,51.0,19.0,30.16,NNE,30,6.0,-999.0,28,-99.99,,,-99.99,,2013-03-19 22:43:00,
2013-03-19 17:53:00,51.0,19.0,30.16,NNE,30,6.0,-999.0,28,-99.99,,,-99.99,,2013-03-19 22:53:00,
2013-03-19 18:02:00,51.0,21.0,30.16,NNE,19,4.0,-999.0,30,-99.99,,,-99.99,,2013-03-19 23:02:00,
2013-03-19 18:12:00,51.0,21.0,30.16,NNE,19,4.0,-999.0,30,-99.99,,,-99.99,,2013-03-19 23:12:00,
2013-03-19 18:22:00,51.0,23.0,30.16,NE,45,4.0,-999.0,33,-99.99,,,-99.99,,2013-03-19 23:22:00,
2013-03-19 18:32:00,51.0,24.0,30.16,East,91,4.0,-999.0,34,-99.99,,,-99.99,,2013-03-19 23:32:00,
2013-03-19 18:42:00,51.0,24.0,30.16,East,91,4.0,-999.0,34,-99.99,,,-99.99,,2013-03-19 23:42:00,
2013-03-19 18:52:00,50.0,23.0,30.16,ENE,64,4.0,-999.0,34,-99.99,,,-99.99,,2013-03-19 23:52:00,
2013-03-19 19:02:00,50.0,23.0,30.16,NE,52,3.0,-999.0,35,-99.99,,,-99.99,,2013-03-20 00:02:00,
2013-03-19 19:12:00,50.0,23.0,30.16,NE,52,3.0,-999.0,35,-99.99,,,-99.99,,2013-03-20 00:12:00,
2013-03-19 19:22:00,49.0,23.0,30.17,NE,55,0.0,-999.0,35,-99.99,,,-99.99,,2013-03-20 00:22:00,
2013-03-19 19:33:00,49.0,23.0,30.16,NE,39,0.0,-999.0,36,-99.99,,,-99.99,,2013-03-20 00:33:00,
2013-03-19 19:42:00,49.0,23.0,30.16,NE,39,0.0,-999.0,36,-99.99,,,-99.99,,2013-03-20 00:42:00,
2013-03-19 19:52:00,49.0,24.0,30.16,NE,49,0.0,-999.0,37,-99.99,,,-99.99,,2013-03-20 00:52:00,
2013-03-19 20:02:00,49.0,25.0,30.17,NE,49,0.0,-999.0,38,-99.99,,,-99.99,,2013-03-20 01:02:00,
2013-03-19 20:12:00,49.0,25.0,30.17,NE,49,0.0,-999.0,38,-99.99,,,-99.99,,2013-03-20 01:12:00,
2013-03-19 20:22:00,48.0,25.0,30.17,NE,48,0.0,-999.0,40,-99.99,,,-99.99,,2013-03-20 01:22:00,
2013-03-19 20:32:00,48.0,28.0,30.17,NE,38,0.0,-999.0,46,-99.99,,,-99.99,,2013-03-20 01:32:00,
2013-03-19 20:42:00,48.0,28.0,30.17,NE,38,0.0,-999.0,46,-99.99,,,-99.99,,2013-03-20 01:42:00,
2013-03-19 20:52:00,47.0,28.0,30.18,NE,36,0.0,-999.0,48,-99.99,,,-99.99,,2013-03-20 01:52:00,
2013-03-19 21:02:00,47.0,28.0,30.18,NNE,24,0.0,-999.0,47,-99.99,,,-99.99,,2013-03-20 02:02:00,
2013-03-19 21:12:00,47.0,28.0,30.18,NNE,24,0.0,-999.0,47,-99.99,,,-99.99,,2013-03-20 02:12:00,
2013-03-19 21:22:00,46.0,27.0,30.18,NE,36,0.0,-999.0,48,-99.99,,,-99.99,,2013-03-20 02:22:00,
2013-03-19 21:32:00,46.0,28.0,30.18,NE,40,0.0,-999.0,50,-99.99,,,-99.99,,2013-03-20 02:32:00,
2013-03-19 21:42:00,46.0,28.0,30.18,NE,40,0.0,-999.0,50,-99.99,,,-99.99,,2013-03-20 02:42:00,
2013-03-19 21:53:00,46.0,28.0,30.18,NE,55,0.0,-999.0,50,-99.99,,,-99.99,,2013-03-20 02:53:00,
2013-03-19 22:02:00,46.0,27.0,30.18,NE,53,0.0,-999.0,48,-99.99,,,-99.99,,2013-03-20 03:02:00,
2013-03-19 22:12:00,46.0,28.0,30.18,NE,55,0.0,-999.0,49,-99.99,,,-99.99,,2013-03-20 03:12:00,
2013-03-19 22:22:00,46.0,28.0,30.18,NE,55,0.0,-999.0,49,-99.99,,,-99.99,,2013-03-20 03:22:00,
2013-03-19 22:33:00,46.0,28.0,30.19,NE,55,0.0,-999.0,49,-99.99,,,-99.99,,2013-03-20 03:33:00,
2013-03-19 22:42:00,46.0,28.0,30.19,NE,55,0.0,-999.0,49,-99.99,,,-99.99,,2013-03-20 03:42:00,
2013-03-19 22:53:00,46.0,28.0,30.19,NE,55,0.0,-999.0,50,-99.99,,,-99.99,,2013-03-20 03:53:00,
2013-03-19 23:03:00,45.0,27.0,30.19,NE,55,0.0,-999.0,48,-99.99,,,-99.99,,2013-03-20 04:03:00,
2013-03-19 23:12:00,45.0,27.0,30.19,NE,55,0.0,-999.0,48,-99.99,,,-99.99,,2013-03-20 04:12:00,
2013-03-19 23:22:00,44.0,29.0,30.19,NE,51,0.0,-999.0,55,-99.99,,,-99.99,,2013-03-20 04:22:00,
2013-03-19 23:32:00,44.0,30.0,30.19,NE,36,0.0,-999.0,57,-99.99,,,-99.99,,2013-03-20 04:32:00,
2013-03-19 23:43:00,44.0,30.0,30.19,NE,36,0.0,-999.0,57,-99.99,,,-99.99,,2013-03-20 04:43:00,
2013-03-19 23:53:00,43.0,29.0,30.19,NNE,18,0.0,-999.0,58,-99.99,,,-99.99,,2013-03-20 04:53:00,